Location: ????
(30.1475°N, 31.1342°E)
Time: 01:07:49
(UTC+00:00)

ARIANE 5 R/B - Pass Details

Date: 06 April 2023
Orbit: 748 x 794 km, 98.8° (Epoch: 29 May)

Event Time Altitude Azimuth Distance (km) Brightness Sun altitude
Rises 03:09:51 0° 353° (N) 3,291 5.8 -7.1°
Reaches altitude 10° 03:12:46 10° 337° (NNW) 2,362 4.9 -6.5°
Maximum altitude 03:16:24 19° 292° (WNW) 1,791 3.9 -5.7°
Drops below altitude 10° 03:20:02 10° 248° (WSW) 2,356 4.4 -5.0°
Enters shadow 03:22:33 - 233° (SW) 3,146 5.1 -4.4°
